Regional Weather Roundup
Issued by NWS

Home | Current Version | Previous Version | Text Only | Print | Product List | Glossary On
Versions: 1 2 3 4 5 6 7 8 9 10 11 12 13 14 15 16 17 18 19 20 21 22 23 24 25 26 27 28 29 30 31 32 33 34 35 36 37 38 39 40 41 42 43 44 45 46 47 48 49 50
145
ASUS43 KIND 150309
RWRIN

WEATHER ROUNDUP FOR INDIANA
NATIONAL WEATHER SERVICE INDIANAPOLIS IN
1000 PM EST THU NOV 14 2019

NOTE: "FAIR" INDICATES FEW OR NO CLOUDS BELOW 12,000 FEET WITH NO
SIGNIFICANT WEATHER AND/OR OBSTRUCTIONS TO VISIBILITY.

* - STATION DOES NOT REPORT WEATHER SUCH AS PRECIPITATION OR FOG.

+ - STATION NOT QUALITY CONTROLLED BY THE NATIONAL WEATHER SERVICE.
    USE DATA WITH CAUTION...ESPECIALLY DEWPOINT AND RELATIVE
    HUMIDITY OBSERVATIONS.

INZ001>003-010>013-019-020-150400-
NORTHWEST INDIANA

CITY           SKY/WX    TMP DP  RH WIND       PRES   REMARKS
GARY /AIRPORT/ CLOUDY    30  21  69 W12       30.32S WCI  21
KNOX *+        CLOUDY    30  23  74 W9        30.32R WCI  22
LA PORTE +     CLOUDY    28  22  78 W3        30.31S
MICHIGAN CITY+ CLOUDY    30  28  93 SW7       30.31S WCI  23
MONTICELLO +   CLOUDY    30  22  71 W10       30.33R WCI  21
RENSSELAER +   CLOUDY    30  23  74 W12       30.34S WCI  21
VALPARAISO     CLOUDY    30  20  66 W13       30.31S WCI  20

$$

LMZ046-743>745-150400-
SOUTHERN LAKE MICHIGAN

STATION/POSITION TIME  TEMP    WIND        PRES    WAVE
                       AIR SEA DIR/SP/G            HT
                 (UTC) (F)     (DEG/KT/KT) (MB)    (FT)
MICHIGAN CITY    0240   30     230/ 16/ 19   N/A

$$

INZ004-005-014>016-021>024-150400-
NORTH CENTRAL INDIANA

CITY           SKY/WX    TMP DP  RH WIND       PRES   REMARKS
GOSHEN         CLOUDY    29  22  75 W13       30.29R WCI  19
LOGANSPORT +   CLOUDY    30  23  74 W8        30.33S WCI  23
PERU/GRISSOM   CLOUDY    29  25  84 W9        30.31R WCI  21
PLYMOUTH *+    CLOUDY    28  21  74 W13G18    30.30S WCI  18
ROCHESTER +    CLOUDY    32  23  69 W9        30.32R WCI  24
SOUTH BEND     CLOUDY    30  21  69 W12       30.29S WCI  20
WARSAW +       CLOUDY    30  23  74 W9G16     30.30S WCI  22

$$

INZ006>009-017-018-025>027-150400-
NORTHEAST INDIANA

CITY           SKY/WX    TMP DP  RH WIND       PRES   REMARKS
ANGOLA *+      CLOUDY    28  23  80 W12G20    30.26S WCI  18
AUBURN +       CLOUDY    32  27  80 W8        30.28S WCI  25
FORT WAYNE     CLOUDY    31  23  72 W12       30.29S WCI  22
HUNTINGTON +   CLOUDY    30  22  73 W9        30.30S WCI  22
KENDALLVILLE + CLOUDY    29  21  72 W12       30.27S WCI  20

$$

INZ028-029-035-036-043>045-051>053-150400-
WEST CENTRAL INDIANA

CITY           SKY/WX    TMP DP  RH WIND       PRES   REMARKS
CRAWFORDSVL +  CLOUDY    28  22  78 W8        30.34S WCI  20
GREENCASTLE +  CLOUDY    32  23  69 NW3       30.34S
LAFAYETTE      CLOUDY    31  23  72 W9        30.34S WCI  23
TERRE HAUTE    CLOUDY    32  24  72 NW6       30.36S WCI  26

$$

INZ030>032-037>040-046>048-054>057-064-065-150400-
CENTRAL INDIANA

CITY           SKY/WX    TMP DP  RH WIND       PRES   REMARKS
ANDERSON +     FAIR      30  25  82 W3        30.31S
COLUMBUS       CLEAR     28  21  74 CALM      30.33R
FRANKFORT +    CLOUDY    32  24  72 NW8       30.35R WCI  25
INDIANAPOLIS   FAIR      29  24  82 NW3       30.33R
-EAGLE CREEK   MOCLDY    31  25  78 NW6       30.32S WCI  25
KOKOMO +       CLOUDY    30  25  81 W13       30.32S WCI  20
MARION +       CLOUDY    31  28  89 W10       30.32R WCI  22
MT COMFORT *+  FAIR      27  27 100 W6        30.32S WCI  20
SHELBYVILLE    FAIR      30  24  78 NW7       30.31R WCI  23
ZIONSVILLE +   CLOUDY    29  28  94 NW7       30.32S WCI  22

$$

INZ033-034-041-042-049-050-058-059-150400-
EAST CENTRAL INDIANA

CITY           SKY/WX    TMP DP  RH WIND       PRES   REMARKS
MUNCIE         FAIR      32  24  72 NW7       30.30R WCI  26
PORTLAND +     FAIR      32  23  69 CALM      30.29S
RICHMOND +     FAIR      28  27  93 NW5       30.29S WCI  23

$$

INZ060-061-067>069-081>083-085>088-150400-
SOUTHWEST INDIANA

CITY           SKY/WX    TMP DP  RH WIND       PRES   REMARKS
EVANSVILLE     FAIR      34  23  64 N7        30.36R WCI  28
HUNTINGBURG +  FAIR      33  24  69 NW7       30.34R WCI  27
WASHINGTON +   FAIR      30  26  84 CALM      30.36R

$$

INZ062-063-066-070>080-084-089>092-150400-
SOUTH CENTRAL AND SOUTHEAST INDIANA

CITY           SKY/WX    TMP DP  RH WIND       PRES   REMARKS
BATESVILLE +   PTCLDY    28  27  93 CALM      30.30R
BEDFORD +        N/A     32  23  69 NW5       30.33R WCI  27
BLOOMINGTON    FAIR      31  24  75 NW3       30.33R
FRENCH LICK *+ FAIR      32  25  74 NW7       30.33R WCI  26
JEFFERSONVL +  FAIR      29  26  91 CALM      30.33R
MADISON *+     FAIR      30  28  93 CALM      30.33R
NORTH VERNON + FAIR      30  23  74 W8        30.32R WCI  23
SEYMOUR +      FAIR      34  25  69 NW3       30.33R

$$





USA.gov is the U.S. government's official web portal to all federal, state and local government web resources and services.